Torna al catalogo

KUIPER-00208

AttivoComunicazioniLEO
NORAD 67775·PAYLOAD·🇺🇸 United States

Lanciato Feb 12, 2026 da Guiana Space Centre

Loading…

Prossimi Passaggi (prossime 24 ore)

TLE

AggiornatoSource: CelesTrak SupGP

Epoca: Sep 14, 2026, 17:35 UTC

1 67775C 26030M   26257.73274306 -.00000522  00000+0 -68267-4 0  2577
2 67775  51.8964  94.6500 0001411 107.9090 223.6379 14.79932283    15

Traccia KUIPER-00208 in tempo reale con AllMySat

Download on the App Store